[[{"header":{"parameterUnit":"m.s-1","parameterCategory":1,"la1":30.2991,"la2":30.254,"lo1":-89.0895,"lo2":-89.0444,"dy":0.0017,"dx":0.0017,"nx":28,"ny":28,"refTime":"2025-11-14T09:00:00:Z","depth":0,"parameterNumber":2,"parameterNumberName":"U-component_of_WINDS"},"data":[0,0,0,0,0,0,0,0,0,0,0,0,0,0,0,0,0,0,0,0,0,0,0,0,0,0,0,0,0,0,0,0,0,0,0,0,0,0,0,0,0,0,0,0,0,0,0,0,0,0,0,0,0,0,0,0,0,0,1.5468,1.5469,0,1.5576,1.5577,1.5578,1.558,1.5579,1.5578,1.5576,1.5686,1.569,1.5694,0,0,0,0,0,0,0,0,0,0,0,0,0,1.5265,1.5268,1.5468,1.5469,1.5471,1.5576,1.5577,1.5579,1.5581,1.5579,1.5577,1.5576,1.5685,1.569,1.5695,0,0,0,0,0,0,0,0,0,0,0,0,0,1.5361,1.527,1.5468,1.5484,1.5487,1.5575,1.5577,1.5579,1.5581,1.5579,1.5577,1.5575,1.5683,1.5689,1.5695,1.5774,0,0,1.5714,1.5717,0,0,0,0,0,0,0,0,1.5355,1.5368,1.5481,1.5483,1.5486,1.5563,1.5546,1.5644,1.5581,1.5545,1.5576,1.5574,1.5647,1.5656,1.568,1.5779,1.5784,1.5715,1.5719,1.5722,1.5723,0,0,0,0,0,0,0,1.5349,1.5364,1.5511,1.5482,1.5486,1.5487,1.5498,1.5564,1.5606,1.5548,1.5549,1.5561,1.5648,1.5674,1.5683,1.5786,1.5715,1.572,1.5724,1.5727,1.5957,1.5959,0,0,0,0,0,0,1.5339,1.5358,1.5507,1.5514,1.5415,1.5492,1.5505,1.554,1.5605,1.5613,1.5563,1.5561,1.5665,1.5676,1.5687,1.5785,1.5721,1.5727,1.5731,1.5955,1.5958,1.596,0,0,0,0,0,0,1.5334,1.5352,1.5503,1.5436,1.5455,1.5498,1.5537,1.5543,1.557,1.5616,1.5624,1.5582,1.5663,1.5678,1.5753,1.5788,1.573,1.5736,1.5952,1.5956,1.5959,1.598,0,0,0,0,0,0,1.5328,1.535,1.538,1.5437,1.5459,1.5567,1.554,1.5547,1.5581,1.5579,1.5636,1.5644,1.5663,1.5744,1.5759,1.5796,1.5741,1.5949,1.5954,1.5958,1.5977,1.5984,1.5991,0,0,0,0,0,1.5321,1.5382,1.5382,1.54,1.5498,1.5569,1.5582,1.5602,1.5583,1.5614,1.5645,1.5642,1.5782,1.5751,1.5769,1.5808,1.5947,1.5952,1.5958,1.5973,1.5983,1.599,0,0,0,0,0,0,1.5327,1.5389,1.539,1.5471,1.5515,1.5569,1.5609,1.5611,1.5661,1.5658,1.5681,1.5694,1.5769,1.5796,1.5761,1.5889,1.5862,1.5871,1.5868,1.5878,1.5884,1.5876,1.5746,0,0,0,0,0,1.5338,1.5391,1.5442,1.5509,1.5531,1.5566,1.5598,1.561,1.5657,1.5675,1.5711,1.5756,1.581,1.5845,1.5898,1.5981,1.5994,1.6017,1.6023,1.6029,1.6037,1.6084,1.6095,1.5978,1.5978,1.5978,0,0,1.5361,1.5401,1.5433,1.5511,1.5546,1.5601,1.5582,1.564,1.5681,1.5684,1.5757,1.5785,1.5837,1.5917,1.5954,1.5942,1.6072,1.6036,1.604,1.6045,1.6091,1.6102,1.6111,1.5981,1.5981,1.598,0,0,1.5431,1.5466,1.5526,1.5562,1.5617,1.564,1.5655,1.571,1.5728,1.5802,1.5807,1.5856,1.5948,1.5986,1.6017,1.6103,1.6103,1.612,1.6156,1.6202,1.6211,1.6219,1.6251,1.6262,1.6127,1.6127,1.6127,0,1.5452,1.5534,1.5556,1.5615,1.565,1.5656,1.5717,1.5751,1.582,1.5844,1.583,1.5947,1.5983,1.6072,1.6093,1.6118,1.6136,1.6113,1.6208,1.6217,1.6225,1.6255,1.6267,1.6129,1.6129,1.6128,1.6128,0,1.5559,1.5616,1.5658,1.5725,1.5764,1.5824,1.5855,1.5892,1.5902,1.5927,1.6003,1.6046,1.6108,1.613,1.614,1.6222,1.6213,1.6203,1.6177,1.6237,1.6266,1.6278,1.6131,1.6131,1.613,1.613,0,0,1.5634,1.5714,1.5729,1.576,1.5821,1.5866,1.5927,1.5988,1.602,1.6068,1.6119,1.6199,1.6191,1.6226,1.624,1.6281,1.6348,1.6266,1.6268,1.628,1.6442,1.6449,1.6462,1.6348,1.6351,1.6352,1.6438,0,1.571,1.5818,1.584,1.5934,1.5988,1.5996,1.6049,1.6093,1.6118,1.6168,1.6196,1.6253,1.6237,1.6259,1.6299,1.6331,1.638,1.6325,1.6397,1.64,1.6384,1.6477,1.6484,1.6563,1.6449,1.6451,1.6453,0,1.5814,1.5865,1.5964,1.602,1.6044,1.6091,1.615,1.6197,1.6247,1.6263,1.6304,1.6314,1.6378,1.6349,1.6439,1.6401,1.6432,1.6452,1.6455,1.6463,1.643,1.6488,1.6588,1.66,1.647,1.6469,1.6468,0,1.586,1.5953,1.6025,1.6052,1.6118,1.6152,1.6181,1.6229,1.6266,1.6317,1.6341,1.6399,1.6431,1.6476,1.6502,1.6479,1.659,1.6563,1.6606,1.6605,1.6628,1.6627,1.6736,1.6648,1.6648,1.6648,1.6647,0,1.5943,1.6003,1.6047,1.6091,1.616,1.6185,1.6252,1.6281,1.6325,1.6375,1.6386,1.6433,1.6464,1.6516,1.6537,1.6609,1.6623,1.6638,1.6643,1.6637,1.6635,1.6658,1.6653,1.6651,1.665,1.665,1.6649,0,1.6005,1.6037,1.6116,1.6173,1.6189,1.6237,1.6287,1.633,1.6357,1.6421,1.6437,1.6479,1.6541,1.6571,1.6648,1.6662,1.6743,1.6744,1.6726,1.6728,1.677,1.6765,1.6897,1.6916,1.6815,1.6816,1.6817,0,1.6056,1.6103,1.6166,1.6201,1.6232,1.6287,1.6325,1.6352,1.639,1.6452,1.6489,1.6551,1.6603,1.6702,1.6739,1.6798,1.6801,1.6843,1.681,1.6804,1.6803,1.68,1.6805,1.6849,1.685,1.6851,1.6852,0,1.6144,1.6158,1.6211,1.627,1.6315,1.6363,1.641,1.6438,1.6473,1.6516,1.658,1.662,1.6699,1.6761,1.6824,1.6854,1.686,1.6862,1.6875,1.687,1.6858,1.6866,1.6743,1.6859,1.6858,1.6857,1.6857,1.6857,1.6203,1.6245,1.6297,1.6356,1.6395,1.644,1.6484,1.6517,1.657,1.6637,1.665,1.6718,1.6769,1.6854,1.6887,1.6941,1.6931,1.695,1.6955,1.6959,1.6962,1.6849,1.6952,1.6952,1.6952,1.6952,1.6951,0,1.6292,1.6325,1.638,1.6446,1.6494,1.6495,1.6548,1.6587,1.6647,1.6694,1.6745,1.6819,1.688,1.6923,1.6985,1.7021,1.7025,1.7036,1.7034,1.7041,1.6966,1.6949,1.7032,1.7032,1.7032,1.7032,1.7032,1.7032,1.6343,1.6416,1.6436,1.6529,1.6562,1.6629,1.666,1.6701,1.6739,1.6822,1.6873,1.69,1.6946,1.7013,1.7069,1.708,1.7103,1.7115,1.7126,1.7055,1.7046,1.7038,1.7022,1.7119,1.7119,1.7197,1.7197,1.7198]},{"header":{"parameterUnit":"m.s-1","parameterCategory":1,"la1":30.2991,"la2":30.254,"lo1":-89.0895,"lo2":-89.0444,"dy":0.0017,"dx":0.0017,"nx":28,"ny":28,"refTime":"2025-11-14T09:00:00:Z","depth":0,"parameterNumber":3,"parameterNumberName":"V-component_of_WINDS"},"data":[0,0,0,0,0,0,0,0,0,0,0,0,0,0,0,0,0,0,0,0,0,0,0,0,0,0,0,0,0,0,0,0,0,0,0,0,0,0,0,0,0,0,0,0,0,0,0,0,0,0,0,0,0,0,0,0,0,0,1.35,1.35,0,1.3502,1.3502,1.3502,1.3473,1.3472,1.3471,1.347,1.3472,1.3472,1.3473,0,0,0,0,0,0,0,0,0,0,0,0,0,1.3472,1.3473,1.35,1.35,1.3501,1.3502,1.3502,1.3502,1.3473,1.3472,1.3471,1.347,1.3471,1.3472,1.3473,0,0,0,0,0,0,0,0,0,0,0,0,0,1.348,1.3473,1.35,1.3486,1.3485,1.3502,1.3502,1.3502,1.3473,1.3472,1.3471,1.347,1.3471,1.3472,1.3473,1.3504,0,0,1.3477,1.3477,0,0,0,0,0,0,0,0,1.348,1.3481,1.3488,1.3487,1.3486,1.3486,1.3492,1.3503,1.3473,1.3478,1.347,1.3469,1.3477,1.3478,1.3481,1.3504,1.3504,1.3477,1.3478,1.3478,1.3478,0,0,0,0,0,0,0,1.3479,1.3481,1.3501,1.3488,1.3487,1.3479,1.3479,1.3494,1.3484,1.3477,1.3475,1.3476,1.3476,1.348,1.3481,1.3504,1.3477,1.3478,1.3479,1.3479,1.3552,1.3553,0,0,0,0,0,0,1.348,1.3481,1.3501,1.3501,1.348,1.3481,1.3481,1.3487,1.3484,1.3482,1.3477,1.3474,1.3478,1.3479,1.3481,1.3516,1.3478,1.3479,1.348,1.3551,1.3552,1.3554,0,0,0,0,0,0,1.348,1.3483,1.3501,1.349,1.3492,1.3483,1.349,1.3488,1.3491,1.3483,1.3481,1.3482,1.3477,1.3479,1.3498,1.3516,1.348,1.3481,1.3549,1.3551,1.3553,1.3587,0,0,0,0,0,0,1.3479,1.3483,1.3494,1.3491,1.3493,1.3519,1.3491,1.3489,1.3493,1.349,1.3488,1.3486,1.3477,1.3497,1.3499,1.3516,1.3482,1.3548,1.355,1.3552,1.3584,1.359,1.3595,0,0,0,0,0,1.3478,1.3504,1.3495,1.3498,1.3507,1.352,1.3521,1.351,1.3495,1.3506,1.3501,1.3486,1.3513,1.3499,1.3502,1.3519,1.3546,1.3549,1.3552,1.3582,1.3589,1.3595,0,0,0,0,0,0,1.351,1.3503,1.3493,1.3519,1.352,1.3515,1.3529,1.3517,1.3523,1.352,1.3505,1.3505,1.3526,1.3525,1.3509,1.3549,1.3527,1.3531,1.3549,1.3555,1.356,1.3561,1.3483,0,0,0,0,0,1.352,1.3531,1.3524,1.3547,1.3549,1.3539,1.3544,1.3535,1.3536,1.3536,1.3533,1.3534,1.3543,1.3549,1.3556,1.3584,1.3583,1.3597,1.3602,1.3607,1.361,1.3624,1.3631,1.3563,1.3563,1.3563,0,0,1.3541,1.3538,1.3546,1.3554,1.3554,1.3565,1.354,1.3553,1.3562,1.3538,1.3557,1.3554,1.3554,1.3578,1.3588,1.3577,1.3628,1.361,1.3614,1.3615,1.3628,1.3634,1.364,1.3565,1.3564,1.3564,0,0,1.3584,1.3584,1.3602,1.3603,1.3603,1.3597,1.3601,1.3598,1.3595,1.3613,1.3596,1.3605,1.3621,1.3622,1.3624,1.3668,1.3654,1.367,1.3697,1.3711,1.3717,1.3721,1.3737,1.3743,1.3674,1.3674,1.3674,0,1.361,1.3627,1.3614,1.3628,1.3632,1.3611,1.363,1.3631,1.3634,1.3637,1.3625,1.3643,1.3642,1.3665,1.3676,1.3678,1.3683,1.3671,1.3717,1.3721,1.3726,1.374,1.3746,1.3676,1.3675,1.3675,1.3675,0,1.3658,1.367,1.3685,1.3689,1.3694,1.3711,1.37,1.3706,1.3697,1.3691,1.371,1.3707,1.3714,1.3719,1.3709,1.3741,1.3734,1.372,1.3698,1.3734,1.3748,1.3753,1.3679,1.3678,1.3677,1.3677,0,0,1.3723,1.3718,1.3724,1.3725,1.3723,1.3732,1.3748,1.3754,1.376,1.3763,1.3775,1.3788,1.3775,1.3778,1.3768,1.378,1.3815,1.3764,1.3764,1.3774,1.3849,1.386,1.3867,1.3806,1.3807,1.3807,1.3849,0,1.3765,1.3791,1.378,1.3807,1.3818,1.3798,1.3811,1.3812,1.3807,1.3815,1.381,1.3819,1.3801,1.3802,1.3813,1.3808,1.383,1.3805,1.3817,1.3818,1.3818,1.3874,1.3886,1.3925,1.3854,1.3855,1.3856,0,1.3818,1.3823,1.3851,1.3848,1.3852,1.3864,1.3869,1.3877,1.3877,1.3872,1.3875,1.3863,1.3877,1.3855,1.3875,1.3859,1.3863,1.3861,1.3862,1.3863,1.3839,1.3877,1.3937,1.3943,1.3864,1.3863,1.3863,0,1.3862,1.3876,1.3894,1.3896,1.3892,1.3901,1.39,1.3898,1.3903,1.3907,1.3909,1.3915,1.3918,1.3923,1.3912,1.3897,1.3934,1.3911,1.3931,1.3931,1.394,1.3939,1.4002,1.3942,1.3942,1.3942,1.3942,0,1.3911,1.393,1.3914,1.3926,1.3945,1.3931,1.3951,1.3948,1.3947,1.3957,1.394,1.395,1.3935,1.3944,1.3936,1.3953,1.3955,1.3952,1.3949,1.3953,1.3954,1.3956,1.3953,1.3943,1.3943,1.3943,1.3942,0,1.3964,1.3955,1.3974,1.3968,1.3967,1.3982,1.3977,1.3987,1.3981,1.3994,1.3997,1.3987,1.3996,1.3986,1.3994,1.3988,1.4012,1.4006,1.4013,1.4011,1.4031,1.4029,1.4098,1.4106,1.404,1.4041,1.4042,0,1.3996,1.401,1.4006,1.4011,1.4011,1.402,1.4025,1.4011,1.4016,1.4017,1.4027,1.4035,1.404,1.4056,1.405,1.4056,1.4049,1.4073,1.405,1.4054,1.405,1.4049,1.4051,1.4078,1.4079,1.4079,1.408,0,1.4054,1.4048,1.4055,1.4061,1.4066,1.407,1.4072,1.4077,1.4063,1.407,1.4079,1.4083,1.4092,1.41,1.4104,1.4102,1.4089,1.4087,1.4092,1.4096,1.41,1.4098,1.4026,1.4086,1.4085,1.4085,1.4084,1.4084,1.4098,1.4109,1.4107,1.4115,1.4115,1.4118,1.4127,1.4122,1.4129,1.4135,1.4126,1.4138,1.4137,1.4141,1.4141,1.415,1.414,1.4147,1.4149,1.4151,1.4154,1.4098,1.415,1.415,1.415,1.415,1.415,0,1.4155,1.4153,1.416,1.4164,1.417,1.4156,1.4158,1.4164,1.4174,1.4174,1.418,1.419,1.4198,1.4192,1.4198,1.4206,1.42,1.4208,1.4207,1.4207,1.4162,1.4158,1.4213,1.4213,1.4213,1.4213,1.4213,1.4213,1.4185,1.4203,1.4197,1.4215,1.4212,1.4223,1.4225,1.4227,1.4227,1.4239,1.4245,1.4241,1.4239,1.4245,1.4251,1.4249,1.4252,1.4262,1.4258,1.4217,1.421,1.4204,1.42,1.4263,1.4263,1.4302,1.4303,1.4303]}]]